Home > Weather > Kelowna > Past weeks

Flag for Canada Weather for the Past 2 Weeks in Kelowna, British Columbia, Canada

Now
37 °F

Passing clouds.


Feels Like: 32 °F
Forecast: 36 / 43 °F
Wind: 7 mph from Southeast

Location: Kelowna Airport

Current Time: Feb 10, 2016 at 7:38:16 PM

Latest Report: Feb 10, 2016 at 7:00 PM


Visibility: 9 mi

Pressure: 30.28 "Hg

Humidity: 87%

Dew point: 34 °F

Location of KelownaLocation

Historic Weather in Kelowna — Graph

°F

Kelowna Temperature Yesterday

Maximum temperature yesterday: 34 °F (at 3:00 PM)
Minimum temperature yesterday: 21 °F (at 2:00 AM)
Average temperature yesterday: 27 °F

High & Low Weather Summary for the Past Weeks

 TemperatureHumidityPressure
High45 °F (Jan 28, 3:00 PM)100% (Jan 29, 4:00 PM)30.75 "Hg (Jan 29, 4:00 PM)
Low9 °F (Feb 3, 12:00 AM)49% (Feb 6, 3:00 PM)29.64 "Hg (Jan 29, 2:48 PM)
Average32 °F87%30.21 "Hg
* Reported Jan 26 8:00 PM — Feb 10 7:00 PM, Kelowna, Weather by CustomWeather, © 2016

Note: Actual official high and low records may vary slightly from our data, if they occured in-between our weather recording intervals... More about our weather records

Advertising

Kelowna Weather History for the Previous 24 Hours

 ConditionsComfort  
Time TempWeatherWind HumidityBarometerVisibility
7:00 PM
Wed, Feb 10
37 °FPassing clouds.7 mph87%30.28 "Hg9 mi
6:00 PM39 °FClear.5 mph81%30.28 "Hg9 mi
5:00 PM39 °FMostly cloudy.8 mph81%30.28 "Hg9 mi
4:00 PM41 °FOvercast.5 mph76%30.26 "Hg9 mi
3:00 PM37 °FOvercast.6 mph87%30.27 "Hg9 mi
2:00 PM37 °FPartly sunny.3 mph81%30.27 "Hg9 mi
1:00 PM36 °FPartly sunny.No wind87%30.28 "Hg9 mi
12:00 PM34 °FOvercast.No wind93%30.28 "Hg7 mi
11:03 AM34 °FFog.2 mph93%30.29 "Hg6 mi
10:00 AM32 °FIce fog.2 mph100%30.30 "Hg6 mi
9:50 AM32 °FIce fog.2 mph100%30.31 "Hg6 mi
9:00 AM32 °FIce fog.2 mph100%30.30 "Hg6 mi
8:00 AM30 °FIce fog.3 mph93%30.30 "Hg4 mi
7:00 AM28 °FIce fog.2 mph100%30.29 "Hg3 mi
6:00 AM28 °FIce fog.6 mph100%30.31 "Hg2 mi
5:04 AM27 °FIce fog.6 mph100%30.31 "Hg1 mi
4:54 AM27 °FIce fog.7 mph93%30.30 "Hg1 mi
4:00 AM25 °FIce fog.No wind100%30.30 "Hg1 mi
3:56 AM28 °FIce fog.2 mph93%30.30 "Hg1 mi
3:00 AM28 °FIce fog.3 mph93%30.30 "Hg2 mi
2:57 AM28 °FIce fog.3 mph93%30.31 "Hg2 mi
2:00 AM28 °FIce fog.3 mph93%30.31 "Hg5 mi
1:00 AM25 °FIce fog.6 mph100%30.32 "Hg4 mi
12:00 AM25 °FIce fog.5 mph100%30.31 "Hg6 mi
11:47 PM
Tue, Feb 9
28 °FIce fog.5 mph93%30.31 "Hg6 mi
11:00 PM25 °FIce fog.6 mph93%30.33 "Hg6 mi
10:00 PM28 °FClear.No wind93%30.32 "Hg8 mi
9:00 PM25 °FClear.2 mph93%30.32 "Hg9 mi
8:00 PM27 °FPassing clouds.5 mph100%30.32 "Hg7 mi
7:00 PM28 °FClear.No wind86%30.34 "Hg9 mi
Weather by CustomWeather, © 2016

See weather overviewHow to use our weather pages